This demonstration page uses our WeatherBlox Daily Observations layout. Learn more.

Left ArrowRight Arrow

Hourly Observations for October 8, 2018

Temp ( °F °C ) Dew Point ( °F °C ) Humidity (%) Winds ( mph kmh ) Pressure ( in mb ) Visibility ( mi km ) Precip ( " mm )
12:11 am 00:11 Cloudy with Light Rain 48 8.9 47 8.3 96 96 NE 7 11 30.00 1016 2 3 0.00 0.03
12:32 am 00:32 Cloudy with Mist and Fog 46 8 46 8 100 100 NNE 7 11 30.00 1016 3 5 0.00 0.00
12:53 am 00:53 Cloudy with Light Rain 48 8.9 47 8.3 96 96 NE 6 9 29.99 1016 5 8 0.01 0.25
1:03 am 01:03 Cloudy with Light Rain 48 8.9 47 8.3 96 96 NE 7 11 30.00 1016 3 4 0.00 0.03
1:11 am 01:11 Cloudy with Light Rain 48 8.9 47 8.3 96 96 NE 7 11 30.00 1016 3 4 0.00 0.03
1:19 am 01:19 Cloudy with Mist and Fog 48 8.9 47 8.3 96 96 NNE 7 11 30.00 1016 3 5 0.00 0.03
1:30 am 01:30 Cloudy with Light Rain 48 9 46 8 94 94 NE 6 9 30.00 1016 2 3 0.00 0.00
1:39 am 01:39 Cloudy with Light Rain 48 8.9 47 8.3 96 96 NE 7 11 30.00 1016 3 5 0.01 0.25
1:53 am 01:53 Cloudy with Light Rain 48 8.9 47 8.3 96 96 NE 6 9 29.98 1015 3 4 0.01 0.25
2:13 am 02:13 Cloudy with Light Rain 48 8.9 47 8.3 96 96 NE 8 13 30.00 1016 2 3 0.01 0.25
2:21 am 02:21 Cloudy with Light Rain 48 8.9 47 8.3 96 96 NE 7 11 30.00 1016 3 4 0.01 0.25
2:30 am 02:30 Cloudy with Mist and Fog 48 9 46 8 94 94 NNE 7 11 29.97 1015 5 8 0.00 0.00
2:46 am 02:46 Cloudy 48 9 46 8 94 94 NE 12 19 29.97 1015 8 13 0.00 0.00
2:53 am 02:53 Cloudy 48 8.9 47 8.3 96 96 NE 10 17 29.96 1014 10 16 0.01 0.25
3:00 am 03:00 Cloudy 48 9 46 8 94 94 NNE 8 13 29.97 1015 9 14 0.00 0.00
3:53 am 03:53 Cloudy with Mist and Fog 48 8.9 47 8.3 96 96 NE 13 20 29.93 1013 3 5 0.00 0.00
4:02 am 04:02 Cloudy with Mist and Fog 48 8.9 47 8.3 96 96 NE 12 19 29.94 1014 2 3 0.00 0.00
4:38 am 04:38 Cloudy with Mist and Fog 48 9 46 8 94 94 NNE 10 17 29.94 1014 3 5 0.00 0.00
4:53 am 04:53 Cloudy with Mist and Fog 48 8.9 47 8.3 96 96 NE 13 20 29.90 1013 3 5 0.00 0.00
5:19 am 05:19 Cloudy with Light Rain 48 8.9 47 8.3 96 96 NNE 10 17 29.91 1013 3 4 0.00 0.03
5:45 am 05:45 Cloudy with Mist and Fog 48 8.9 47 8.3 96 96 N 10 17 29.94 1014 2 2 0.01 0.25
5:53 am 05:53 Cloudy with Light Rain 47 8.3 47 8.3 100 100 NNE 9 15 29.91 1013 1 2 0.01 0.25
6:15 am 06:15 Cloudy with Light Rain 47 8.3 47 8.3 100 100 NE 9 15 29.94 1014 1 2 0.00 0.03
6:53 am 06:53 Cloudy with Light Rain 47 8.3 47 8.3 100 100 N 8 13 29.93 1014 2 2 0.01 0.25
7:32 am 07:32 Cloudy with Light Rain 48 9 46 8 94 94 N 9 15 29.97 1015 2 2 0.00 0.00
7:42 am 07:42 Cloudy with Light Rain 46 8 46 8 100 100 NNE 9 15 29.97 1015 2 3 0.00 0.00
7:49 am 07:49 Cloudy with Light Rain 46 8 46 8 100 100 NNE 9 15 29.97 1015 3 5 0.03 0.76
7:53 am 07:53 Cloudy with Light Rain 47 8.3 47 8.3 100 100 NNE 9 15 29.96 1014 4 6 0.03 0.76
8:14 am 08:14 Cloudy with Light Rain 46 8 46 8 100 100 N 12 19 29.97 1015 4 6 0.00 0.00
8:32 am 08:32 Cloudy with Rain 46 8 46 8 100 100 NNE 12 19 29.97 1015 2 3 0.00 0.00
8:40 am 08:40 Cloudy with Rain 46 8 46 8 100 100 NNE 10 17 29.97 1015 2 3 0.00 0.00
8:44 am 08:44 Cloudy with Rain 46 8 46 8 100 100 NNE 9 15 29.97 1015 2 3 0.00 0.00
8:53 am 08:53 Cloudy with Light Rain 47 8.3 46 7.8 97 97 N 10 17 29.96 1015 3 5 0.12 3.05
9:10 am 09:10 Cloudy with Light Rain 46 8 46 8 100 100 N 12 19 29.97 1015 3 5 0.00 0.00
9:53 am 09:53 Cloudy 47 8.3 46 7.8 97 97 N 10 17 29.96 1015 10 16 0.04 1.02
10:53 am 10:53 Cloudy with Mist and Fog 47 8.3 46 7.8 97 97 NNE 13 20 29.94 1014 4 6 0.00 0.03
11:53 am 11:53 Cloudy with Light Rain 48 8.9 47 8.3 96 96 NE 10 17 29.94 1014 10 16 0.01 0.25
12:53 pm 12:53 Cloudy with Light Rain 49 9.4 48 8.9 97 97 NE 8 13 29.93 1013 6 10 0.04 1.02
1:53 pm 13:53 Cloudy 50 10 49 9.4 96 96 E 9 15 29.90 1013 10 16 0.02 0.51
2:53 pm 14:53 Cloudy with Light Rain 50 10 50 10 100 100 NW 15 24 29.92 1013 6 10 0.01 0.25
3:04 pm 15:04 Cloudy with Light Rain 50 10 48 9 94 94 NW 14 22 29.91 1013 2 3 0.00 0.00
3:43 pm 15:43 Cloudy with Light Rain 50 10 49 9.4 96 96 NNW 14 22 29.91 1013 2 2 0.01 0.25
3:53 pm 15:53 Cloudy with Light Rain 50 10 49 9.4 96 96 N 15 24 29.90 1013 1 2 0.01 0.25
4:30 pm 16:30 Cloudy with Light Rain 48 8.9 47 8.3 96 96 NNW 17 28 29.94 1014 3 5 0.00 0.03
4:53 pm 16:53 Cloudy 47 8.3 46 7.8 97 97 NNW 16 26 29.95 1014 10 16 0.00 0.03
5:37 pm 17:37 Mostly Cloudy 47 8.3 45 7.2 93 93 N 15 24 29.97 1015 10 16 0.00 0.00
5:50 pm 17:50 Mostly Cloudy 46 8 45 7 93 93 N 12 19 29.97 1015 10 16 0.00 0.00
5:53 pm 17:53 Mostly Cloudy 47 8.3 45 7.2 93 93 N 10 17 29.95 1014 10 16 0.00 0.00
6:08 pm 18:08 Cloudy 46 8 45 7 93 93 N 9 15 29.97 1015 10 16 0.00 0.00
6:49 pm 18:49 Cloudy 46 8 45 7 93 93 NNW 12 19 29.97 1015 10 16 0.00 0.00
6:53 pm 18:53 Cloudy 47 8.3 45 7.2 93 93 N 12 19 29.94 1014 10 16 0.00 0.00
7:53 pm 19:53 Cloudy 47 8.3 45 7.2 93 93 N 12 19 29.95 1014 10 16 0.00 0.00
8:53 pm 20:53 Cloudy 47 8.3 45 7.2 93 93 N 12 19 29.97 1015 10 16 0.00 0.00
9:18 pm 21:18 Cloudy 46 8 45 7 93 93 N 12 19 30.00 1016 7 11 0.00 0.00
9:29 pm 21:29 Cloudy 46 7.8 45 7.2 96 96 N 8 13 30.00 1016 10 16 0.00 0.03
9:53 pm 21:53 Cloudy 46 7.8 45 7.2 96 96 N 7 11 29.98 1015 10 16 0.00 0.03
10:53 pm 22:53 Cloudy 46 7.8 45 7.2 96 96 N 9 15 29.99 1016 8 13 0.00 0.00
11:53 pm 23:53 Cloudy with Light Rain 46 7.8 45 7.2 96 96 N 10 17 30.00 1016 4 6 0.01 0.25

Powered by AerisWeather